[[{"header":{"parameterUnit":"m.s-1","parameterCategory":1,"la1":30.2991,"la2":30.254,"lo1":-89.0895,"lo2":-89.0444,"dy":0.0017,"dx":0.0017,"nx":28,"ny":28,"refTime":"2024-08-04T03:00:00:Z","depth":0,"parameterNumber":2,"parameterNumberName":"U-component_of_WINDS"},"data":[0,0,0,0,0,0,0,0,0,0,0,0,0,0,0,0,0,0,0,0,0,0,0,0,0,0,0,0,0,0,0,0,0,0,0,0,0,0,0,0,0,0,0,0,0,0,0,0,0,0,0,0,0,0,0,0,0,0,-2.31,-2.3101,0,-2.323,-2.3232,-2.3233,-2.3245,-2.3244,-2.3242,-2.3241,-2.3374,-2.3379,-2.3383,0,0,0,0,0,0,0,0,0,0,0,0,0,-2.2862,-2.2866,-2.31,-2.3101,-2.3103,-2.323,-2.3232,-2.3233,-2.3245,-2.3244,-2.3242,-2.324,-2.3372,-2.3378,-2.3384,0,0,0,0,0,0,0,0,0,0,0,0,0,-2.2976,-2.2867,-2.3099,-2.3124,-2.3128,-2.3229,-2.3232,-2.3234,-2.3246,-2.3244,-2.3242,-2.324,-2.337,-2.3377,-2.3384,-2.347,0,0,-2.3407,-2.341,0,0,0,0,0,0,0,0,-2.2969,-2.2984,-2.3119,-2.3123,-2.3127,-2.3219,-2.3196,-2.3313,-2.3246,-2.3201,-2.3241,-2.3239,-2.3324,-2.3335,-2.3364,-2.3476,-2.3482,-2.3407,-2.3412,-2.3415,-2.3417,0,0,0,0,0,0,0,-2.2961,-2.2979,-2.3151,-2.3121,-2.3126,-2.3129,-2.3143,-2.3219,-2.3272,-2.3205,-2.3206,-2.3221,-2.3326,-2.3357,-2.3367,-2.3484,-2.3407,-2.3413,-2.3418,-2.3421,-2.3674,-2.3676,0,0,0,0,0,0,-2.2949,-2.2972,-2.3147,-2.3155,-2.3041,-2.3135,-2.3151,-2.3192,-2.3272,-2.3282,-2.3223,-2.3221,-2.3346,-2.3359,-2.3372,-2.3477,-2.3415,-2.3421,-2.3426,-2.3672,-2.3675,-2.3677,0,0,0,0,0,0,-2.2944,-2.2964,-2.3142,-2.3064,-2.3087,-2.3141,-2.3187,-2.3195,-2.3226,-2.3285,-2.3295,-2.3245,-2.3344,-2.3362,-2.3446,-2.3482,-2.3425,-2.3431,-2.3669,-2.3673,-2.3676,-2.3688,0,0,0,0,0,0,-2.2937,-2.2962,-2.2995,-2.3065,-2.3091,-2.3213,-2.319,-2.3199,-2.3239,-2.3238,-2.3308,-2.3318,-2.3344,-2.3435,-2.3453,-2.3491,-2.3437,-2.3666,-2.3671,-2.3675,-2.3685,-2.3692,-2.3698,0,0,0,0,0,-2.2928,-2.2993,-2.2997,-2.3018,-2.3133,-2.3215,-2.323,-2.3259,-2.3242,-2.3275,-2.3313,-2.3316,-2.3476,-2.3443,-2.3464,-2.3504,-2.3664,-2.3669,-2.3675,-2.3682,-2.3691,-2.3698,0,0,0,0,0,0,-2.2925,-2.3003,-2.3007,-2.3097,-2.315,-2.3217,-2.326,-2.3268,-2.3326,-2.3323,-2.3357,-2.3372,-2.3455,-2.3489,-2.3452,-2.3592,-2.3568,-2.3578,-2.3567,-2.3575,-2.3582,-2.3571,-2.3443,0,0,0,0,0,-2.2935,-2.2996,-2.306,-2.3133,-2.3159,-2.3205,-2.3242,-2.326,-2.3316,-2.3338,-2.3383,-2.3437,-2.3499,-2.3539,-2.36,-2.3691,-2.3706,-2.3729,-2.3735,-2.3741,-2.3748,-2.3798,-2.3809,-2.3695,-2.3695,-2.3695,0,0,-2.2956,-2.3006,-2.3042,-2.3133,-2.3176,-2.3238,-2.3224,-2.329,-2.3336,-2.3348,-2.343,-2.3465,-2.3528,-2.3615,-2.3656,-2.3646,-2.3783,-2.3747,-2.3751,-2.3756,-2.3805,-2.3816,-2.3825,-2.3699,-2.3698,-2.3698,0,0,-2.3025,-2.3069,-2.3134,-2.3178,-2.3244,-2.3275,-2.329,-2.3358,-2.3381,-2.3465,-2.3476,-2.3531,-2.3638,-2.3683,-2.3719,-2.3808,-2.3812,-2.3827,-2.386,-2.3909,-2.3918,-2.3926,-2.3956,-2.3967,-2.3834,-2.3834,-2.3834,0,-2.3042,-2.3136,-2.3167,-2.3233,-2.3273,-2.3289,-2.3355,-2.3396,-2.3478,-2.3505,-2.3493,-2.3628,-2.3672,-2.377,-2.3792,-2.3821,-2.384,-2.3817,-2.3914,-2.3922,-2.393,-2.396,-2.3972,-2.3836,-2.3835,-2.3835,-2.3835,0,-2.3153,-2.3218,-2.3263,-2.3342,-2.3388,-2.3454,-2.3496,-2.3538,-2.3553,-2.3585,-2.367,-2.3723,-2.3795,-2.382,-2.3835,-2.3921,-2.3913,-2.3907,-2.3883,-2.3942,-2.397,-2.3982,-2.3837,-2.3837,-2.3836,-2.3836,0,0,-2.3221,-2.3319,-2.3335,-2.3371,-2.3446,-2.3497,-2.3564,-2.3635,-2.367,-2.3727,-2.3784,-2.3876,-2.3871,-2.3912,-2.3933,-2.3976,-2.4042,-2.3965,-2.3967,-2.3976,-2.414,-2.4143,-2.4155,-2.4047,-2.4049,-2.4051,-2.4134,0,-2.3298,-2.3417,-2.3448,-2.355,-2.361,-2.3627,-2.3686,-2.3738,-2.3771,-2.3827,-2.3863,-2.3927,-2.3917,-2.3942,-2.3986,-2.4025,-2.4075,-2.402,-2.4099,-2.4102,-2.4081,-2.417,-2.4173,-2.4249,-2.4146,-2.4148,-2.4149,0,-2.3402,-2.3461,-2.3569,-2.3637,-2.3664,-2.3715,-2.3783,-2.3837,-2.3898,-2.3918,-2.3966,-2.3983,-2.4054,-2.4028,-2.4126,-2.4088,-2.4123,-2.4147,-2.4151,-2.4158,-2.4127,-2.4178,-2.4274,-2.4285,-2.4167,-2.4166,-2.4164,0,-2.3439,-2.3547,-2.3625,-2.3656,-2.3737,-2.3774,-2.3809,-2.3868,-2.3909,-2.3969,-2.3995,-2.4063,-2.4099,-2.4151,-2.4186,-2.4164,-2.4282,-2.4259,-2.43,-2.4299,-2.4322,-2.432,-2.4423,-2.4348,-2.4348,-2.4347,-2.4347,0,-2.352,-2.3585,-2.3643,-2.3691,-2.3765,-2.3801,-2.3873,-2.3909,-2.3961,-2.4017,-2.4036,-2.4088,-2.4132,-2.419,-2.4218,-2.4295,-2.4312,-2.433,-2.4336,-2.4327,-2.4325,-2.4349,-2.4344,-2.435,-2.435,-2.4349,-2.4349,0,-2.3573,-2.3614,-2.3701,-2.3772,-2.3791,-2.3842,-2.3903,-2.395,-2.3985,-2.4055,-2.4073,-2.4127,-2.4196,-2.4237,-2.4324,-2.4343,-2.4428,-2.4433,-2.4407,-2.441,-2.4448,-2.4444,-2.457,-2.4588,-2.4502,-2.4502,-2.4503,0,-2.362,-2.3671,-2.3747,-2.3786,-2.3822,-2.3885,-2.3927,-2.3966,-2.4009,-2.4082,-2.4121,-2.4192,-2.425,-2.436,-2.4407,-2.4474,-2.448,-2.452,-2.449,-2.4479,-2.4479,-2.4475,-2.448,-2.4524,-2.4524,-2.4525,-2.4525,0,-2.37,-2.3719,-2.3779,-2.3847,-2.3897,-2.3952,-2.4007,-2.4038,-2.4086,-2.4134,-2.4205,-2.4251,-2.4341,-2.4411,-2.4482,-2.4519,-2.453,-2.4535,-2.4548,-2.4538,-2.452,-2.4529,-2.4419,-2.4531,-2.4531,-2.453,-2.453,-2.453,-2.3751,-2.3797,-2.3858,-2.3925,-2.3971,-2.4022,-2.407,-2.4111,-2.4171,-2.4247,-2.4267,-2.4342,-2.4403,-2.45,-2.4539,-2.4598,-2.4592,-2.461,-2.4615,-2.4619,-2.4619,-2.4513,-2.4612,-2.4612,-2.4612,-2.4611,-2.4611,0,-2.383,-2.3871,-2.3933,-2.4009,-2.4062,-2.407,-2.4131,-2.4175,-2.424,-2.4296,-2.4354,-2.4436,-2.4505,-2.4558,-2.4628,-2.4665,-2.4672,-2.4682,-2.4679,-2.4687,-2.4622,-2.4603,-2.4676,-2.4676,-2.4676,-2.4676,-2.4676,-2.4676,-2.3878,-2.3956,-2.3982,-2.4083,-2.4124,-2.4197,-2.4232,-2.428,-2.4324,-2.4415,-2.4473,-2.4507,-2.4562,-2.4637,-2.47,-2.4714,-2.4738,-2.4747,-2.4762,-2.4699,-2.4692,-2.4685,-2.4667,-2.4753,-2.4753,-2.4823,-2.4823,-2.4824]},{"header":{"parameterUnit":"m.s-1","parameterCategory":1,"la1":30.2991,"la2":30.254,"lo1":-89.0895,"lo2":-89.0444,"dy":0.0017,"dx":0.0017,"nx":28,"ny":28,"refTime":"2024-08-04T03:00:00:Z","depth":0,"parameterNumber":3,"parameterNumberName":"V-component_of_WINDS"},"data":[0,0,0,0,0,0,0,0,0,0,0,0,0,0,0,0,0,0,0,0,0,0,0,0,0,0,0,0,0,0,0,0,0,0,0,0,0,0,0,0,0,0,0,0,0,0,0,0,0,0,0,0,0,0,0,0,0,0,0.7929,0.7929,0,0.7911,0.7911,0.7911,0.7904,0.7904,0.7904,0.7904,0.7884,0.7884,0.7883,0,0,0,0,0,0,0,0,0,0,0,0,0,0.7956,0.7956,0.7929,0.7929,0.7928,0.7911,0.7911,0.7911,0.7904,0.7904,0.7904,0.7904,0.7885,0.7884,0.7883,0,0,0,0,0,0,0,0,0,0,0,0,0,0.7942,0.7955,0.7929,0.7923,0.7922,0.7911,0.7911,0.7911,0.7904,0.7904,0.7904,0.7904,0.7885,0.7884,0.7883,0.7876,0,0,0.788,0.788,0,0,0,0,0,0,0,0,0.7943,0.7941,0.7924,0.7924,0.7923,0.791,0.7913,0.7899,0.7904,0.7911,0.7904,0.7904,0.7893,0.7891,0.7887,0.7875,0.7874,0.788,0.788,0.7879,0.7879,0,0,0,0,0,0,0,0.7944,0.7941,0.7922,0.7924,0.7923,0.7921,0.7919,0.791,0.7901,0.791,0.791,0.7908,0.7892,0.7888,0.7887,0.7874,0.788,0.7879,0.7879,0.7879,0.7854,0.7854,0,0,0,0,0,0,0.7946,0.7942,0.7922,0.7921,0.7933,0.792,0.7918,0.7914,0.7902,0.79,0.7908,0.7908,0.789,0.7888,0.7886,0.7877,0.7879,0.7878,0.7878,0.7854,0.7854,0.7854,0,0,0,0,0,0,0.7946,0.7944,0.7923,0.7932,0.7929,0.792,0.7915,0.7914,0.791,0.79,0.7898,0.7906,0.789,0.7887,0.7878,0.7876,0.7878,0.7877,0.7854,0.7854,0.7854,0.7858,0,0,0,0,0,0,0.7947,0.7944,0.7942,0.7932,0.7928,0.7916,0.7915,0.7913,0.7908,0.7908,0.7897,0.7895,0.789,0.788,0.7878,0.7875,0.7877,0.7854,0.7854,0.7854,0.7858,0.7858,0.7858,0,0,0,0,0,0.7948,0.7943,0.7942,0.7939,0.7925,0.7916,0.7914,0.7908,0.7908,0.7905,0.7899,0.7896,0.7877,0.7879,0.7876,0.7873,0.7854,0.7854,0.7854,0.7858,0.7858,0.7858,0,0,0,0,0,0,0.7952,0.7942,0.794,0.7932,0.7925,0.7915,0.7911,0.7908,0.7901,0.7901,0.7893,0.7891,0.7882,0.7877,0.7879,0.7866,0.7865,0.7864,0.7869,0.7869,0.7869,0.787,0.7876,0,0,0,0,0,0.7953,0.7947,0.7937,0.7931,0.7928,0.792,0.7916,0.7912,0.7904,0.7901,0.7894,0.7886,0.7879,0.7874,0.7866,0.7857,0.7855,0.7854,0.7854,0.7854,0.7853,0.7848,0.7848,0.7853,0.7853,0.7853,0,0,0.7953,0.7946,0.7942,0.7932,0.7926,0.7919,0.7917,0.7911,0.7905,0.79,0.7891,0.7886,0.7876,0.7868,0.7863,0.7863,0.7851,0.7853,0.7854,0.7853,0.7848,0.7847,0.7847,0.7852,0.7853,0.7853,0,0,0.7949,0.7944,0.7938,0.7932,0.7924,0.7919,0.7917,0.7908,0.7904,0.7895,0.7891,0.7885,0.7872,0.7865,0.786,0.7855,0.7852,0.7853,0.7852,0.7848,0.7847,0.7847,0.7845,0.7844,0.7852,0.7852,0.7852,0,0.795,0.794,0.7935,0.7928,0.7924,0.7919,0.7913,0.7907,0.7897,0.7893,0.7893,0.7877,0.787,0.786,0.7859,0.7855,0.7853,0.7854,0.7848,0.7847,0.7847,0.7845,0.7844,0.7852,0.7852,0.7852,0.7852,0,0.7942,0.7935,0.7931,0.7922,0.7917,0.791,0.7903,0.7899,0.7895,0.789,0.7881,0.7874,0.7864,0.7862,0.7858,0.7851,0.7851,0.7849,0.7849,0.7847,0.7845,0.7844,0.7853,0.7852,0.7852,0.7852,0,0,0.794,0.7928,0.7927,0.7922,0.7913,0.7907,0.7901,0.7892,0.7888,0.7881,0.7875,0.7865,0.7863,0.7858,0.7853,0.7849,0.7845,0.7848,0.7848,0.7848,0.7837,0.7838,0.7837,0.7843,0.7843,0.7843,0.7838,0,0.7935,0.7924,0.7919,0.7909,0.7903,0.7899,0.7893,0.7886,0.7881,0.7875,0.7869,0.7862,0.7861,0.7857,0.7853,0.7847,0.7843,0.7847,0.7837,0.7837,0.784,0.7836,0.7837,0.7832,0.7837,0.7837,0.7837,0,0.7928,0.7921,0.7912,0.7903,0.79,0.7895,0.7887,0.7881,0.7873,0.787,0.7864,0.786,0.7853,0.7853,0.7843,0.7846,0.7841,0.7838,0.7837,0.7836,0.7837,0.7834,0.7831,0.783,0.7835,0.7835,0.7835,0,0.7928,0.7916,0.7909,0.7905,0.7895,0.7892,0.7887,0.788,0.7875,0.7868,0.7865,0.7857,0.7852,0.7846,0.784,0.7841,0.783,0.783,0.7826,0.7827,0.7824,0.7824,0.7819,0.7822,0.7822,0.7822,0.7822,0,0.7923,0.7917,0.7909,0.7904,0.7897,0.7892,0.7885,0.788,0.7873,0.7867,0.7863,0.7858,0.785,0.7843,0.7839,0.7831,0.7829,0.7825,0.7824,0.7826,0.7826,0.7823,0.7823,0.7822,0.7822,0.7822,0.7822,0,0.7921,0.7916,0.7907,0.7898,0.7896,0.7891,0.7884,0.7879,0.7874,0.7867,0.7865,0.7857,0.7849,0.7842,0.7832,0.7829,0.782,0.7819,0.7823,0.7822,0.782,0.782,0.7812,0.7811,0.7814,0.7814,0.7814,0,0.7918,0.7914,0.7905,0.7901,0.7896,0.789,0.7885,0.7879,0.7875,0.7866,0.7862,0.7854,0.7847,0.7835,0.7828,0.782,0.7818,0.7816,0.7817,0.7819,0.7818,0.7818,0.7818,0.7816,0.7816,0.7816,0.7816,0,0.7913,0.7911,0.7905,0.7898,0.7892,0.7886,0.788,0.7877,0.787,0.7865,0.7857,0.7852,0.7841,0.7833,0.7825,0.782,0.7816,0.7816,0.7815,0.7816,0.7818,0.7817,0.7823,0.7816,0.7816,0.7816,0.7816,0.7816,0.7911,0.7907,0.79,0.7893,0.7888,0.7882,0.7877,0.7872,0.7866,0.7857,0.7854,0.7846,0.7838,0.7827,0.7822,0.7815,0.7815,0.7813,0.7812,0.7812,0.7812,0.782,0.7813,0.7813,0.7813,0.7813,0.7813,0,0.7906,0.7901,0.7895,0.7887,0.7881,0.7879,0.7873,0.7868,0.7861,0.7855,0.7848,0.7839,0.7832,0.7825,0.7817,0.7813,0.7811,0.7811,0.7811,0.781,0.7813,0.7815,0.7812,0.7812,0.7812,0.7812,0.7812,0.7812,0.7903,0.7895,0.7892,0.7882,0.7877,0.787,0.7866,0.7861,0.7856,0.7846,0.784,0.7835,0.7829,0.782,0.7813,0.7811,0.7808,0.7808,0.7806,0.7809,0.7809,0.781,0.7811,0.7808,0.7808,0.7803,0.7803,0.7803]}]]